Terminal Aerodrome Forecast
Issued by NWS Jackson, KY

Home | Current Version | Previous Version | Text Only | Print | Product List | Glossary On
Versions: 1 2 3 4 5 6 7 8 9 10 11 12 13 14 15 16 17 18
000
FTUS43 KJKL 101100
TAFLOZ
TAF
KLOZ 101132Z 1012/1112 00000KT 4SM BR FEW002 SCT050
      TEMPO 1012/1013 1/2SM FG VV001
     FM101300 02005KT P6SM SCT045=

USA.gov is the U.S. government's official web portal to all federal, state and local government web resources and services.